Location: Narrabri
(30.3170°S, 149.7830°E)
Time: 21:45:21
(UTC+11:00)

Envisat - Pass Details

Date: 07 October 2017
Orbit: 764 x 766 km, 98.2° (Epoch: 19 October)

Event Time Altitude Azimuth Distance (km) Brightness Sun altitude
Rises 22:29:03 0° 185° (S) 3,263 6.8 -40.9°
Reaches altitude 10° 22:31:48 10° 199° (SSW) 2,329 6.0 -41.3°
Enters shadow 22:33:07 16° 211° (SSW) 1,962 5.6 -41.5°
